OPS 4682 DEB, 38390

Orbit data source: Space-Track

OPS 4682 DEB, 38390 is space debris in LEO originally from a launch on Sat, 03 Apr 1965 UTC launched from the Air Force Western Test Range (AFWTR). Debris objects in space refer to the collection of defunct objects orbiting the Earth. Examples of debris include non-operational satellites, rocket bodies, and fragments generated from explosions, collisions, or faulty payload assembly.

Loading next visibility...
Identifier
38390, 1965-027CT
Orbit
LEO
Country
Flag of USUS
Related business
Manufacturer
Unknown
Mission
Spacecraft
Bus & Motor
Unknown
Mass
Unknown
Launch date (UTC)
1965-04-03 (61 years ago)
Launch vehicle
Unknown
Launch site
Air Force Western Test Range (AFWTR)
Object type
Payload
Rocket body
Debris
Shape & HBR
Unknown shape, 0.1 m
Radar Cross Section
Small (<0.1 m²)

Expand to show TLE details & history
Last TLE update: 5 days ago

TLE from 5 days ago
0 OPS 4682 DEB
1 38390U 65027CT  25299.44472163  .00000675  00000-0  22903-2 0  9997
2 38390  90.2357 353.9699 0028496 316.5086  43.3787 12.97651590582386
Epoch: 2025-10-26T10:40Z
TLE epoch observation values (Epoch: 2025-10-26T10:40:23.948Z)
Latitude
-0.00008°
Longitude
158.80929°
Altitude
1,258.365 km
Speed
7.234 km/s
True Right ascension
23h 35m 52s
True Declination
0° 00' 00"
Sunlit
Object was in full shadow at epoch
Visualization orbit readout
Latitude
Unknown
Longitude
Unknown
Altitude
Unknown
Speed
Unknown
Apparent Right ascension
Unknown
Apparent Declination
Unknown
Sunlit
N/A
Visualization observer readout
Local Sidereal Time
07:35:32
Azimuth
Unknown
Elevation
Unknown
Doppler factor
Unknown
Orbital elements
Apogee altitude
1,290.222 km
Perigee altitude
1,246.643 km
Semi-major axis
7,646.569 km
Eccentricity
0.00285
Inclination
90.2357°
RAAN
353.9699°
Arg. of periapsis
316.5086°
True anomaly
43.60355°
Mean anomaly
43.3787°
Eccentric anomaly
43.49107°
Mean motion
3.24596 °/min
Orbital period
110.91 mins
BSTAR
0.0022903
Loading maneuver chart data...
Computing Atmospheric mass density...
Loading historical data...
Loading historical data...
Loading historical data...
Loading historical data...
Loading historical data...
Loading historical data...
Loading historical data...

Documentation

Showing up to 5 results
|